Flag for Greece Weather past 2 weeks in Santorini, Greece

Now
63 °F

Scattered clouds.


Feels Like: 63 °F
Forecast: 61 / 63 °F
Wind: 7 mph from Southwest

Location: Santorini Island

Current Time: Dec 25, 2014 at 4:31:03 PM

Latest Report: Dec 25, 2014 at 3:50 PM


Visibility: N/A

Pressure: 30.15 "Hg

Humidity: 73%

Dew point: 54 °F

Location of SantoriniLocation

Historic Weather in Santorini — Graph

°F

Santorini temperature yesterday

Maximum temperature yesterday: 66 °F (at 11:50 AM)
Minimum temperature yesterday: 50 °F (at 2:50 AM)
Average temperature yesterday: 57 °F

Past Weeks' High & Low Weather Summary

 TemperatureHumidityPressure
High66 °F (Dec 10, 3:20 PM)94% (Dec 12, 3:20 AM)30.33 "Hg (Dec 12, 3:20 AM)
Low46 °F (Dec 23, 2:50 AM)44% (Dec 22, 9:50 AM)29.68 "Hg (Dec 12, 3:50 AM)
Average59 °F72%30.13 "Hg
* Reported Dec 10 3:20 PM — Dec 25 3:20 PM, Santorini, Weather by CustomWeather, © 2014

Note: Actual official high and low records may vary slightly from our data, if they occured in-between our weather recording intervals... More about our weather records

Advertising

Santorini weather history for previous 24 hours

 ConditionsComfort  
Time TempWeatherWind HumidityBarometerVisibility
3:20 PM
Dec 25
63 °FScattered clouds.6 mph73%30.18 "HgN/A
2:50 PM63 °FScattered clouds.6 mph73%30.18 "HgN/A
2:20 PM63 °FScattered clouds.6 mph68%30.18 "HgN/A
1:50 PM63 °FScattered clouds.7 mph68%30.18 "HgN/A
1:20 PM64 °FScattered clouds.5 mph68%30.21 "HgN/A
12:50 PM64 °FScattered clouds.5 mph68%30.21 "HgN/A
12:20 PM64 °FScattered clouds.8 mph64%30.21 "HgN/A
11:50 AM64 °FScattered clouds.8 mph64%30.21 "HgN/A
11:20 AM64 °FScattered clouds.8 mph68%30.24 "HgN/A
10:50 AM64 °FScattered clouds.7 mph68%30.24 "HgN/A
10:20 AM63 °FPassing clouds.5 mph73%30.24 "HgN/A
9:50 AM63 °FPassing clouds.5 mph73%30.24 "HgN/A
9:20 AM63 °FPassing clouds.3 mph77%30.24 "HgN/A
8:50 AM61 °FScattered clouds.No wind83%30.24 "HgN/A
8:20 AM57 °FScattered clouds.No wind94%30.24 "HgN/A
7:50 AM55 °FScattered clouds.No wind94%30.24 "HgN/A
7:20 AM55 °FCool.No wind94%30.24 "HgN/A
6:50 AM55 °FLight rain. Overcast.No wind94%30.24 "HgN/A
6:20 AM54 °FCool.No wind94%30.24 "HgN/A
5:50 AM54 °FCool.No wind94%30.24 "HgN/A
5:20 AM54 °FCool.No wind94%30.24 "HgN/A
4:50 AM54 °FCool.No wind94%30.24 "HgN/A
4:20 AM54 °FCool.No wind94%30.24 "HgN/A
3:50 AM54 °FCool.No wind94%30.24 "HgN/A
3:20 AM54 °FCool.No wind88%30.24 "HgN/A
2:50 AM55 °FCool.No wind88%30.24 "HgN/A
2:20 AM55 °FCool.No wind82%30.24 "HgN/A
1:50 AM55 °FCool.No wind88%30.24 "HgN/A
1:20 AM55 °FCool.No wind82%30.27 "HgN/A
12:50 AM55 °FCool.No wind82%30.27 "HgN/A
12:20 AM55 °FCool.No wind82%30.27 "HgN/A
11:50 PM
Dec 24
54 °FCool.No wind88%30.27 "HgN/A
11:20 PM54 °FCool.No wind88%30.27 "HgN/A
10:50 PM54 °FCool.No wind94%30.27 "HgN/A
10:20 PM54 °FCool.No wind94%30.27 "HgN/A
9:50 PM54 °FCool.No wind94%30.27 "HgN/A
9:20 PM55 °FCool.No wind88%30.27 "HgN/A
8:50 PM54 °FCool.No wind94%30.27 "HgN/A
8:20 PM55 °FClear.7 mph82%30.27 "Hg10 mi
7:50 PM55 °FClear.7 mph82%30.27 "Hg10 mi
7:20 PM57 °FClear.6 mph88%30.27 "Hg10 mi
6:50 PM57 °FClear.6 mph88%30.27 "Hg10 mi
6:20 PM55 °FClear.6 mph82%30.27 "Hg10 mi
5:50 PM55 °FClear.6 mph82%30.27 "Hg10 mi
5:20 PM59 °FClear.No wind72%30.27 "Hg10 mi
4:50 PM59 °FSunny.No wind72%30.27 "Hg10 mi
4:20 PM64 °FSunny.No wind60%30.27 "Hg10 mi
Weather by CustomWeather, © 2014

See weather overviewHow to use our weather pages